Tracking 29018 objects as of 15-Jun-2024
HD Live streaming from Space Station
objects crossing your sky now

STARLINK-6138

Track STARLINK-6138 now!
10-day predictions
STARLINK-6138 is classified as:


NORAD ID: 57329
Int'l Code: 2023-099B
Perigee: 565.5 km
Apogee: 567.0 km
Inclination: 43.0 °
Period: 95.8 minutes
Semi major axis: 6937 km
RCS: Unknown
Launch date: July 16, 2023
Source: United States (US)
Launch site: AIR FORCE EASTERN TEST RANGE (AFETR)
Your satellite tracking list
Your tracking list is empty




NASA's NSSDC Master Catalog

Two Line Element Set (TLE):
1 57329U 23099B   24166.81686972  .00001579  00000-0  13196-3 0  9990
2 57329  43.0028  88.0363 0001108 275.7853  84.2863 15.02535583 50913
Source of the keplerian elements: AFSPC